Showing default

EKRAN 2, 10365

Orbit data source: Space-Track

EKRAN 2, 10365 is a payload satellite owned by MSvyaz (CIS) in GEO that was launched on Tue, 20 Sep 1977 UTC via a PROTON-K/DM launch vehicle from the Tyuratam Missile And Space Complex (TTMTR). Payload-class satellites include a variety of spacecraft equipped with specific instruments for various scientific and technological missions. These include communications satellites like Starlink; space stations such as the ISS; scientific satellites like the Hubble; Earth observation satellites from companies like Planet Labs, Umbra, and HawkEye 360; GPS; miniature CubeSats for education and research; and military/defense satellites.

Not visible in the next 10 days
Identifier
10365, 1977-092A
Orbit
GEO
Country
Flag of CISCIS
Related business
Manufacturer
NPO PM
Mission
Non-operational spacecraft
Bus & Motor
EKRAN, Unknown motor
Mass
2,000 kg wet, ~1,850 kg dry
Launch date (UTC)
1977-09-20 (49 years ago)
Launch vehicle
PROTON-K/DM
Launch site
Tyuratam Missile And Space Complex (TTMTR)
Object type
Payload
Rocket body
Debris
Shape & HBR
Unknown
Radar Cross Section
Large (>1 m²)

Expand to show TLE details & history
Last TLE update: 2 days ago

TLE from 2 days ago
0 EKRAN 2
1 10365U 77092A   26171.41031205 -.00000250  00000-0  00000+0 0  9990
2 10365   4.2278 274.6190 0032899  16.5007 218.3118  1.00235056134889
Epoch: 2026-06-20T09:50Z
TLE epoch observation values (Epoch: 2026-06-20T09:50:50.961Z)
Latitude
-3.44089°
Longitude
92.79155°
Altitude
35,906.019 km
Speed
3.066 km/s
True Right ascension
09h 56m 31s
True Declination
-3° 26' 15"
Sunlit
Object was in daylight at epoch
Visualization orbit readout
Latitude
Unknown
Longitude
Unknown
Altitude
Unknown
Speed
Unknown
Apparent Right ascension
Unknown
Apparent Declination
Unknown
Sunlit
N/A
Visualization observer readout
Local Sidereal Time
01:06:51
Azimuth
Unknown
Elevation
Unknown
Doppler factor
Unknown
Orbital elements
Apogee altitude
35,936.711 km
Perigee altitude
35,659.201 km
Semi-major axis
42,176.093 km
Eccentricity
0.00329
Inclination
4.2278°
RAAN
274.619°
Arg. of periapsis
16.5007°
True anomaly
218.07884°
Mean anomaly
218.3118°
Eccentric anomaly
218.19524°
Mean motion
0.25058 °/min
Orbital period
1,436.68 mins
BSTAR
0
Loading maneuver chart data...
Computing Atmospheric mass density...
Loading historical data...
Loading historical data...
Loading historical data...
Loading historical data...
Loading historical data...
Loading historical data...
Loading historical data...

Documentation

Showing up to 5 results
|